Regional Weather Roundup
Issued by NWS

Home | Current Version | Previous Version | Graphics & Text | Print | Product List | Glossary On
Versions: 1 2 3 4 5 6 7 8 9 10 11 12 13 14 15 16 17 18 19 20 21 22 23 24 25 26 27 28 29 30 31 32 33 34 35 36 37 38 39 40 41 42 43 44 45 46 47 48 49 50
000
ASUS45 KTFX 300110
RWRMT
MONTANA REGIONAL WEATHER ROUNDUP
NATIONAL WEATHER SERVICE GREAT FALLS MT
700 PM MDT FRI MAY 29 2015

NOTE: "FAIR" INDICATES FEW OR NO CLOUDS BELOW 12000 FEET WITH NO
SIGNIFICANT WEATHER AND/OR OBSTRUCTIONS TO VISIBILITY.

MTZ001>007-043-300200-
WEST OF THE DIVIDE

CITY           SKY/WX    TMP DP  RH WIND       PRES   REMARKS
KALISPELL      MOCLDY    75  41  29 S5        29.97F
MISSOULA       CLOUDY    70  47  43 SE8       30.03R
BUTTE          PTSUNNY   66  42  41 VRB3      30.12F
MULLAN PASS    PTSUNNY   62  46  55 CALM      30.11F
DEER LODGE       N/A     57  48  72 SW10      30.12R VSB 3/4
EUREKA           N/A     59  55  88 W3        30.04F
HAMILTON         N/A     68  46  45 N12       30.01S
LIBBY            N/A     75  50  41 N3        29.96F
RONAN            N/A     69  48  46 SE9       30.06F
THOMPSON FALLS   N/A     71  54  55 E13       30.00F
$$

MTZ008-052>055-300200-
SOUTHWEST MONTANA

CITY           SKY/WX    TMP DP  RH WIND       PRES   REMARKS
BOZEMAN        MOSUNNY   66  50  56 SE9       30.09F
DILLON         MOSUNNY   69  43  38 W3        30.09F
W YELLOWSTONE  MOSUNNY   63  36  36 SW12      30.20F
THREE FORKS      N/A     69  69 100 E3        30.08F
$$

MTZ009-010-012-014-046-048-049-054-300200-
EAST SLOPES AND CENTRAL MONTANA

CITY           SKY/WX    TMP DP  RH WIND       PRES   REMARKS
CUT BANK       PTSUNNY   61  47  59 SE12      30.11F
GREAT FALLS    MOSUNNY   65  48  54 E13       30.08F
MALMSTROM AFB  MOSUNNY   66  51  58 E12       30.08F
HELENA         LGT RAIN  67  48  50 SW3       30.06F
CONRAD           N/A     62  52  70 E8        30.12F
$$

MTZ011-013-016-021-045-047-050-051-300200-
NORTH CENTRAL MONTANA

CITY           SKY/WX    TMP DP  RH WIND       PRES   REMARKS
HAVRE          PTSUNNY   65  44  46 SE15      30.13F
LEWISTOWN      MOSUNNY   63  47  55 E12       30.16F
N BAR RANCH    FAIR      57  43  58 S12       30.22F
CHINOOK          N/A     63  37  39 E15G21    30.17S
FORT BENTON      N/A     64  48  55 E13       30.11F
$$

MTZ017>020-022>027-061-062-300200-
NORTHEAST MONTANA

CITY           SKY/WX    TMP DP  RH WIND       PRES   REMARKS
GLASGOW        SUNNY     60  33  36 SE10      30.24F
JORDAN           N/A     61  30  31 E9        30.23F
SIDNEY         SUNNY     61  30  31 NE6       30.28S
WOLF POINT     SUNNY     61  30  31 E5        30.26F
MALTA            N/A     61  36  39 E7        30.18F
PLENTYWOOD       N/A     57  27  30 NE6       30.28S
POPLAR           N/A     61  28  29 E7        30.27S
SCOBEY           N/A     58  29  33 NE5       30.25S
$$

MTZ028>42-056>058-300200-
SOUTHCENTRAL AND SOUTHEAST MONTANA

CITY           SKY/WX    TMP DP  RH WIND       PRES   REMARKS
BAKER          SUNNY     58  29  33 CALM      30.27R
BILLINGS       MOSUNNY   60  45  57 E10       30.20F
LIVINGSTON     MOSUNNY   58  46  64 E18G25    30.16F
MILES CITY     SUNNY     62  27  26 NE6       30.24F
BIG TIMBER       N/A     55  45  67 E12       30.20F
EKALAKA          N/A     56  29  35 NW2       30.23R
LAUREL           N/A     61  46  57 NE7       30.17F
ROUNDUP          N/A     62  42  47 E3        30.10F
$$

REGIONAL REPORTS...DAKOTAS

CITY           SKY/WX    TMP DP  RH WIND       PRES   REMARKS
WILLISTON      SUNNY     58  31  35 N6        30.28S
MINOT          SUNNY     55  31  39 N13       30.28R
DICKINSON      SUNNY     54  35  48 N8        30.26S
BEACH          FAIR      55  32  41 E7        30.28S
CROSBY         FAIR      55  27  33 NE8       30.30S
WATFORD CITY   FAIR      55  32  41 NE6       30.27S
BISMARCK       SUNNY     56  34  43 N13       30.27R
GRAND FORKS    MOSUNNY   52  35  52 N21G26    30.22R
FARGO          PTCLDY    54  38  54 N22G30    30.17R
BUFFALO SD       N/A     55  38  52 E8        30.21R
RAPID CITY     CLOUDY    55  40  56 N9        30.27R
$$

REGIONAL REPORTS...WYOMING/IDAHO/WASHINGTON

CITY           SKY/WX    TMP DP  RH WIND       PRES   REMARKS
GILLETTE       MOSUNNY   57  31  37 NE5       30.28S
SHERIDAN       MOSUNNY   57  44  62 S6        30.24F
BUFFALO WY     PTSUNNY   52  44  74 S7        30.29S
CODY           CLOUDY    61  50  67 CALM      30.21S
YELLOWSTONE LA   N/A     52  43  71 CALM      30.30F
IDAHO FALLS    MOSUNNY   71  40  32 SW8       30.13F
SALMON         PTSUNNY   72  50  46 N7        30.00S
BOISE          PTSUNNY   85  33  15 S9        29.96F
SPOKANE        MOSUNNY   81  42  25 CALM      29.92F
$$

REGIONAL REPORTS...ALBERTA

CITY           SKY/WX    TMP DP  RH WIND       PRES   REMARKS
EDMONTON       LGT RAIN  55  32  41 S14G37    30.20F
CALGARY        LGT RAIN  52  46  82 S12       30.14F
MEDICINE HAT   CLOUDY    68  34  28 SE12      30.12F
$$

REGIONAL REPORTS...SASKATCHEWAN

CITY           SKY/WX    TMP DP  RH WIND       PRES   REMARKS
SWIFT CURRENT  CLOUDY    55  27  33 E10       30.25F
REGINA         PTSUNNY   54  27  35 NE9       30.32R
SASKATOON      PTSUNNY   54  23  30 E8        30.34S
$$



USA.gov is the U.S. government's official web portal to all federal, state and local government web resources and services.